Radiation Dose at Monitoring Post of Fukushima Daini Nuclear Power Station
Date,Time,MP-1(microSv/h),MP-2(microSv/h),MP-3(microSv/h),MP-4(microSv/h),MP-5(microSv/h),MP-6(microSv/h),MP-7(microSv/h),Wind Direction,Wind Velocity(m/s),Rain
2019/02/12,00:00,0.212,0.191,0.310,0.289,0.274,0.155,0.094,south-southwest,2.9,No
2019/02/12,00:10,0.212,0.192,0.312,0.291,0.273,0.155,0.094,south,3.4,No
2019/02/12,00:20,0.211,0.192,0.309,0.293,0.274,0.155,0.095,south,3.3,No
2019/02/12,00:30,0.210,0.191,0.311,0.289,0.273,0.155,0.093,south-southwest,2.8,No
2019/02/12,00:40,0.211,0.191,0.311,0.290,0.273,0.156,0.093,south-southeast,3.1,No
2019/02/12,00:50,0.211,0.191,0.311,0.290,0.274,0.156,0.094,south,2.2,No
2019/02/12,01:00,0.211,0.191,0.311,0.289,0.275,0.155,0.094,south,3.2,No
2019/02/12,01:10,0.211,0.191,0.311,0.290,0.274,0.155,0.094,south-southwest,2.4,No
2019/02/12,01:20,0.211,0.192,0.311,0.291,0.272,0.156,0.094,west-southwest,1.7,No
2019/02/12,01:30,0.211,0.193,0.311,0.291,0.273,0.156,0.094,west-southwest,2.9,No
2019/02/12,01:40,0.212,0.191,0.313,0.290,0.274,0.156,0.094,west-southwest,3.3,No
2019/02/12,01:50,0.212,0.192,0.310,0.290,0.274,0.156,0.094,west-southwest,4.1,Yes
2019/02/12,02:00,0.212,0.192,0.311,0.291,0.273,0.156,0.095,south-southwest,3.9,Yes
2019/02/12,02:10,0.211,0.193,0.310,0.290,0.273,0.155,0.094,southwest,6.4,No
2019/02/12,02:20,0.210,0.191,0.312,0.290,0.275,0.155,0.094,west-southwest,5.0,No
2019/02/12,02:30,0.211,0.192,0.311,0.289,0.273,0.154,0.094,west-northwest,4.1,No
2019/02/12,02:40,0.211,0.192,0.311,0.292,0.274,0.155,0.094,northwest,7.1,No
2019/02/12,02:50,0.212,0.192,0.310,0.291,0.273,0.156,0.094,northwest,6.7,No
2019/02/12,03:00,0.211,0.192,0.311,0.291,0.273,0.156,0.094,north-northwest,7.4,No
2019/02/12,03:10,0.211,0.192,0.311,0.290,0.274,0.155,0.094,north-northwest,9.7,No
2019/02/12,03:20,0.212,0.191,0.312,0.290,0.274,0.154,0.094,north-northwest,8.6,No
2019/02/12,03:30,0.211,0.191,0.312,0.291,0.273,0.155,0.094,north-northwest,9.2,No
2019/02/12,03:40,0.211,0.191,0.309,0.291,0.273,0.156,0.094,north-northwest,9.0,No
2019/02/12,03:50,0.212,0.192,0.312,0.290,0.274,0.156,0.094,north-northwest,7.3,No
2019/02/12,04:00,0.212,0.191,0.314,0.291,0.275,0.155,0.094,north-northwest,7.0,No
2019/02/12,04:10,0.213,0.191,0.310,0.290,0.273,0.155,0.095,north,5.0,No
2019/02/12,04:20,0.213,0.192,0.312,0.291,0.274,0.156,0.094,north,5.3,No
2019/02/12,04:30,0.211,0.193,0.312,0.291,0.275,0.156,0.095,north,6.1,No
2019/02/12,04:40,0.212,0.193,0.312,0.291,0.273,0.155,0.095,north-northwest,6.1,No
2019/02/12,04:50,0.212,0.191,0.312,0.290,0.275,0.156,0.094,north,6.8,No
2019/02/12,05:00,0.212,0.192,0.312,0.290,0.275,0.156,0.093,north,6.5,No
2019/02/12,05:10,0.212,0.191,0.311,0.291,0.273,0.154,0.094,north,6.7,No
2019/02/12,05:20,0.212,0.192,0.311,0.290,0.275,0.155,0.094,north,7.3,No
2019/02/12,05:30,0.212,0.192,0.312,0.291,0.275,0.155,0.095,north,7.4,No
2019/02/12,05:40,0.211,0.191,0.311,0.291,0.275,0.155,0.094,north,6.5,No
2019/02/12,05:50,0.211,0.192,0.312,0.290,0.274,0.155,0.094,north,5.3,No
2019/02/12,06:00,0.212,0.192,0.312,0.291,0.273,0.156,0.094,north,4.9,No
2019/02/12,06:10,0.212,0.191,0.312,0.291,0.274,0.156,0.094,north-northwest,4.7,No
2019/02/12,06:20,0.212,0.192,0.310,0.291,0.275,0.156,0.093,north-northwest,4.1,No
2019/02/12,06:30,0.212,0.192,0.312,0.292,0.274,0.155,0.094,north-northwest,4.2,No
2019/02/12,06:40,0.211,0.190,0.311,0.289,0.274,0.155,0.094,north-northwest,5.4,No
2019/02/12,06:50,0.211,0.191,0.311,0.290,0.273,0.155,0.095,north-northwest,5.7,No
2019/02/12,07:00,0.212,0.192,0.313,0.291,0.274,0.155,0.094,north-northwest,6.2,No
2019/02/12,07:10,0.211,0.192,0.311,0.289,0.273,0.155,0.094,north-northwest,7.0,No
2019/02/12,07:20,0.212,0.191,0.311,0.290,0.273,0.155,0.094,northwest,6.1,No
2019/02/12,07:30,0.211,0.191,0.311,0.290,0.273,0.155,0.094,northwest,6.7,No
2019/02/12,07:40,0.211,0.191,0.311,0.291,0.273,0.155,0.094,north-northwest,6.3,No
2019/02/12,07:50,0.211,0.192,0.312,0.289,0.273,0.156,0.093,north-northwest,5.2,No
2019/02/12,08:00,0.211,0.191,0.311,0.289,0.273,0.155,0.094,north-northwest,4.1,No
2019/02/12,08:10,0.212,0.191,0.309,0.291,0.273,0.155,0.094,north-northwest,2.6,No
2019/02/12,08:20,0.211,0.191,0.311,0.288,0.274,0.155,0.094,north-northwest,3.4,No
2019/02/12,08:30,0.212,0.192,0.313,0.288,0.272,0.155,0.094,north-northwest,5.4,No
2019/02/12,08:40,0.211,0.191,0.310,0.291,0.273,0.154,0.093,north-northwest,5.5,No
2019/02/12,08:50,0.211,0.191,0.310,0.291,0.273,0.156,0.094,north-northwest,5.5,No
2019/02/12,09:00,0.211,0.191,0.311,0.290,0.273,0.155,0.093,north-northwest,5.5,No
2019/02/12,09:10,0.209,0.191,0.310,0.290,0.273,0.154,0.093,north-northwest,6.7,No
2019/02/12,09:20,0.211,0.191,0.312,0.290,0.274,0.155,0.093,north-northwest,4.4,No
2019/02/12,09:30,0.211,0.192,0.312,0.290,0.273,0.155,0.093,north-northwest,3.8,No
2019/02/12,09:40,0.211,0.191,0.313,0.289,0.274,0.156,0.092,north-northwest,5.4,No
2019/02/12,09:50,0.211,0.192,0.311,0.290,0.273,0.155,0.093,north-northwest,4.6,No
2019/02/12,10:00,0.211,0.192,0.311,0.289,0.274,0.154,0.093,north,3.5,No
2019/02/12,10:10,0.210,0.192,0.312,0.290,0.274,0.155,0.093,north,4.4,No
2019/02/12,10:20,0.210,0.191,0.311,0.291,0.273,0.156,0.094,north-northwest,3.4,No
2019/02/12,10:30,0.211,0.190,0.311,0.288,0.275,0.155,0.093,north,1.2,No
2019/02/12,10:40,0.209,0.192,0.310,0.290,0.274,0.156,0.094,north-northeast,3.3,No
2019/02/12,10:50,0.210,0.192,0.312,0.289,0.273,0.155,0.094,north-northwest,2.5,No
2019/02/12,11:00,0.209,0.191,0.310,0.288,0.276,0.155,0.094,northwest,2.5,No
2019/02/12,11:10,0.210,0.191,0.312,0.291,0.272,0.155,0.094,west-northwest,6.5,No
2019/02/12,11:20,0.211,0.191,0.311,0.288,0.274,0.156,0.094,west,7.3,No
2019/02/12,11:30,0.211,0.191,0.311,0.291,0.273,0.155,0.094,west-northwest,3.9,No
2019/02/12,11:40,0.212,0.192,0.309,0.289,0.273,0.155,0.094,north,4.1,No
2019/02/12,11:50,0.210,0.191,0.311,0.291,0.276,0.156,0.093,north,3.6,No
2019/02/12,12:00,0.211,0.192,0.311,0.291,0.274,0.156,0.093,north-northwest,2.9,No
2019/02/12,12:10,0.212,0.192,0.311,0.291,0.276,0.156,0.093,north,4.6,No
2019/02/12,12:20,0.212,0.192,0.312,0.292,0.277,0.156,0.093,north-northeast,3.0,No
2019/02/12,12:30,0.212,0.192,0.313,0.291,0.275,0.156,0.094,north-northwest,4.7,No
2019/02/12,12:40,0.212,0.192,0.312,0.291,0.275,0.155,0.093,north-northwest,6.0,No
2019/02/12,12:50,0.211,0.193,0.311,0.291,0.277,0.156,0.094,north-northwest,7.0,No
2019/02/12,13:00,0.213,0.192,0.312,0.292,0.275,0.156,0.095,north-northwest,5.4,No
2019/02/12,13:10,0.213,0.193,0.312,0.289,0.275,0.156,0.094,north-northwest,6.8,No
2019/02/12,13:20,0.212,0.192,0.311,0.292,0.274,0.156,0.094,west-northwest,8.6,No
2019/02/12,13:30,0.212,0.192,0.312,0.289,0.274,0.157,0.094,northwest,7.1,No
2019/02/12,13:40,0.213,0.193,0.312,0.292,0.277,0.156,0.094,northwest,9.0,No
2019/02/12,13:50,0.212,0.192,0.312,0.291,0.277,0.156,0.094,northwest,10.3,No
2019/02/12,14:00,0.212,0.192,0.312,0.291,0.275,0.156,0.094,northwest,8.6,No
2019/02/12,14:10,0.213,0.192,0.313,0.291,0.276,0.157,0.094,northwest,8.9,No
2019/02/12,14:20,0.213,0.193,0.312,0.290,0.275,0.156,0.095,northwest,10.7,No
2019/02/12,14:30,0.213,0.193,0.313,0.292,0.276,0.157,0.094,northwest,9.2,No
2019/02/12,14:40,0.213,0.192,0.315,0.292,0.276,0.156,0.095,north-northwest,8.9,No
2019/02/12,14:50,0.213,0.193,0.314,0.292,0.277,0.156,0.094,north-northwest,7.8,No
2019/02/12,15:00,0.214,0.193,0.313,0.293,0.276,0.156,0.093,north-northwest,7.9,No
2019/02/12,15:10,0.213,0.193,0.315,0.293,0.276,0.155,0.095,north-northwest,7.0,No
2019/02/12,15:20,0.213,0.193,0.313,0.292,0.277,0.157,0.094,north-northwest,6.4,No
2019/02/12,15:30,0.213,0.193,0.314,0.291,0.276,0.156,0.095,north-northwest,5.5,No
2019/02/12,15:40,0.214,0.193,0.315,0.293,0.276,0.156,0.095,northwest,5.1,No
2019/02/12,15:50,0.214,0.191,0.313,0.293,0.277,0.157,0.094,north,4.9,No
2019/02/12,16:00,0.212,0.193,0.314,0.292,0.276,0.156,0.094,north-northwest,5.6,No
2019/02/12,16:10,0.214,0.193,0.313,0.292,0.277,0.157,0.094,northwest,7.5,No
2019/02/12,16:20,0.213,0.194,0.313,0.293,0.275,0.157,0.095,west-northwest,8.6,No
2019/02/12,16:30,0.214,0.193,0.313,0.293,0.276,0.157,0.094,west-northwest,6.5,No
2019/02/12,16:40,0.213,0.194,0.314,0.293,0.276,0.156,0.094,west-northwest,5.3,Yes
2019/02/12,16:50,0.214,0.193,0.314,0.292,0.276,0.157,0.095,west-northwest,6.4,No
2019/02/12,17:00,0.214,0.193,0.313,0.292,0.276,0.158,0.094,west-northwest,5.6,No
2019/02/12,17:10,0.214,0.193,0.313,0.293,0.275,0.156,0.095,northwest,4.6,No
2019/02/12,17:20,0.213,0.193,0.312,0.294,0.277,0.157,0.095,west-northwest,3.6,No
2019/02/12,17:30,0.213,0.193,0.313,0.292,0.276,0.156,0.095,west-northwest,4.8,No
2019/02/12,17:40,0.213,0.192,0.315,0.292,0.276,0.156,0.094,west-northwest,5.4,No
2019/02/12,17:50,0.213,0.192,0.314,0.292,0.276,0.156,0.095,west-northwest,5.8,No
2019/02/12,18:00,0.214,0.193,0.313,0.293,0.275,0.157,0.095,northwest,4.6,No
2019/02/12,18:10,0.213,0.193,0.315,0.291,0.277,0.157,0.094,northwest,4.4,No
2019/02/12,18:20,0.215,0.194,0.313,0.293,0.277,0.157,0.094,northwest,5.5,No
2019/02/12,18:30,0.215,0.192,0.316,0.292,0.275,0.157,0.094,northwest,7.3,No
2019/02/12,18:40,0.214,0.192,0.314,0.292,0.275,0.157,0.095,west-northwest,7.3,No
2019/02/12,18:50,0.215,0.193,0.315,0.292,0.276,0.156,0.095,west-northwest,10.0,No
2019/02/12,19:00,0.215,0.192,0.314,0.292,0.275,0.157,0.095,west-northwest,8.5,No
2019/02/12,19:10,0.213,0.192,0.314,0.293,0.274,0.157,0.095,west-northwest,8.9,No
2019/02/12,19:20,0.213,0.193,0.314,0.294,0.275,0.157,0.094,west-northwest,8.4,No
2019/02/12,19:30,0.213,0.193,0.314,0.293,0.276,0.158,0.094,northwest,7.8,No
2019/02/12,19:40,0.213,0.192,0.314,0.292,0.275,0.156,0.094,northwest,8.1,No
2019/02/12,19:50,0.214,0.193,0.315,0.292,0.276,0.157,0.095,northwest,7.6,No
2019/02/12,20:00,0.214,0.193,0.315,0.293,0.276,0.157,0.094,northwest,8.7,No
2019/02/12,20:10,0.215,0.193,0.314,0.292,0.276,0.157,0.095,northwest,6.3,No
2019/02/12,20:20,0.214,0.193,0.315,0.294,0.276,0.157,0.094,north-northwest,7.6,No
2019/02/12,20:30,0.214,0.193,0.313,0.292,0.276,0.157,0.095,northwest,8.1,No
2019/02/12,20:40,0.213,0.194,0.314,0.292,0.276,0.158,0.096,northwest,8.6,No
2019/02/12,20:50,0.214,0.193,0.314,0.293,0.275,0.157,0.095,north-northwest,6.7,No
2019/02/12,21:00,0.214,0.193,0.315,0.293,0.276,0.157,0.095,northwest,6.3,No
2019/02/12,21:10,0.214,0.194,0.314,0.292,0.275,0.157,0.094,northwest,7.3,No
2019/02/12,21:20,0.214,0.194,0.314,0.293,0.276,0.157,0.095,northwest,8.4,No
2019/02/12,21:30,0.214,0.194,0.316,0.292,0.277,0.156,0.096,northwest,8.5,No
2019/02/12,21:40,0.214,0.193,0.314,0.291,0.275,0.157,0.094,northwest,8.5,No
2019/02/12,21:50,0.214,0.193,0.315,0.293,0.276,0.157,0.096,northwest,9.0,No
2019/02/12,22:00,0.214,0.193,0.315,0.293,0.276,0.156,0.095,northwest,9.0,No
2019/02/12,22:10,0.214,0.193,0.316,0.293,0.276,0.157,0.095,northwest,9.0,No
2019/02/12,22:20,0.214,0.193,0.315,0.292,0.275,0.157,0.095,northwest,8.8,No
2019/02/12,22:30,0.214,0.192,0.314,0.292,0.276,0.156,0.095,northwest,9.3,No
2019/02/12,22:40,0.213,0.193,0.313,0.293,0.276,0.157,0.095,northwest,9.3,No
2019/02/12,22:50,0.213,0.194,0.315,0.293,0.275,0.157,0.095,northwest,9.0,No
2019/02/12,23:00,0.213,0.193,0.315,0.293,0.275,0.157,0.095,northwest,9.5,No
2019/02/12,23:10,0.213,0.194,0.315,0.293,0.275,0.158,0.095,northwest,9.2,No
2019/02/12,23:20,0.214,0.193,0.315,0.293,0.276,0.157,0.095,northwest,8.7,No
2019/02/12,23:30,0.214,0.194,0.316,0.294,0.276,0.157,0.094,northwest,9.6,No
2019/02/12,23:40,0.214,0.194,0.315,0.293,0.276,0.158,0.095,northwest,9.6,No
2019/02/12,23:50,0.215,0.192,0.315,0.293,0.275,0.157,0.094,northwest,9.6,No
